Alexandria, MN

9:15 AM CST on January 17, 2018 (GMT -0600)
Chandler

Weather History for KAXN - April, 2014

Change the Weather History Date:

Friday, April 4, 2014

  Actual Average Record
Temperature  
Mean Temperature 32 °F -  
Max Temperature 37 °F 45 °F 72 °F (1959)
Min Temperature 28 °F 25 °F 7 °F (2002)
Degree Days  
Heating Degree Days 32    
Moisture  
Dew Point 26 °F    
Average Humidity 78    
Maximum Humidity 93    
Minimum Humidity 65    
Precipitation  
Precipitation 0.00 in - - ()
Sea Level Pressure  
Sea Level Pressure 29.96 in    
Wind  
Wind Speed 12 mph (NNW)    
Max Wind Speed 22 mph    
Max Gust Speed 30 mph    
Visibility 10 miles    
Events      
Averages and records for this station are not official NWS values.
T = Trace of Precipitation, MM = Missing Value Source: NWS Daily Summary

Daily Weather History Graph

Daily Weather History Graph

Search for Another Location

Airport or City:

Trip Planner

Search our weather history database for the weather conditions in past years. The results will help you decide how hot, cold, wet, or windy it might be!

Date:

Astronomy

Apr. 04, 2014 Rise Set
Actual Time 6:55 AM CDT 7:54 PM CDT
Civil Twilight 6:25 AM CDT 8:24 PM CDT
Nautical Twilight 5:49 AM CDT 9:00 PM CDT
Astronomical Twilight 5:11 AM CDT 9:39 PM CDT
Moon 10:02 AM CDT (4/4) 12:24 AM CDT (4/4)
Length of Visible Light 13h 58m
Length of Day
12h 58m
Waxing Crescent, 25% of the Moon is Illuminated
Apr 4
Waxing Crescent
Apr 7
First Quarter
Apr 15
Full
Apr 22
Last Quarter
Apr 29
New

Hourly Weather History & Observations

Time (CDT) Temp. Windchill Dew Point Humidity Pressure Visibility Wind Dir Wind Speed Gust Speed Precip Events Conditions
12:53 AM 28.9 °F 20.4 °F 25.0 °F 85% 29.93 in 10.0 mi North 9.2 mph - N/A   Overcast
1:22 AM 28.4 °F 19.7 °F 24.8 °F 86% 29.87 in 10.0 mi North 9.2 mph - N/A   Overcast
1:53 AM 28.9 °F 19.2 °F 25.0 °F 85% 29.92 in 9.0 mi North 11.5 mph - N/A   Overcast
2:03 AM 28.4 °F 19.7 °F 26.6 °F 93% 29.86 in 5.0 mi North 9.2 mph - N/A   Overcast
2:33 AM 28.4 °F 18.5 °F 26.6 °F 93% 29.84 in 10.0 mi North 11.5 mph - N/A   Overcast
2:49 AM 28.4 °F 18.0 °F 26.6 °F 93% 29.84 in 10.0 mi North 12.7 mph 19.6 mph N/A   Overcast
2:53 AM 28.9 °F 18.2 °F 25.0 °F 85% 29.90 in 10.0 mi North 13.8 mph - N/A   Overcast
3:43 AM 30.2 °F 20.8 °F 26.6 °F 86% 29.84 in 10.0 mi North 11.5 mph - N/A   Overcast
3:53 AM 30.0 °F 20.5 °F 26.1 °F 85% 29.90 in 10.0 mi North 11.5 mph - N/A   Overcast
4:53 AM 30.0 °F 19.5 °F 25.0 °F 82% 29.91 in 10.0 mi North 13.8 mph 24.2 mph N/A   Overcast
5:53 AM 30.0 °F 20.0 °F 25.0 °F 82% 29.91 in 10.0 mi North 12.7 mph - N/A   Overcast
6:18 AM 30.2 °F 20.8 °F 26.6 °F 86% 29.86 in 9.0 mi NNW 11.5 mph - N/A   Overcast
6:53 AM 30.9 °F 21.7 °F 25.0 °F 79% 29.94 in 10.0 mi North 11.5 mph - N/A   Overcast
7:53 AM 30.9 °F 20.7 °F 26.1 °F 82% 29.96 in 10.0 mi NNW 13.8 mph - N/A   Mostly Cloudy
8:12 AM 32.0 °F 21.6 °F 26.6 °F 80% 29.90 in 10.0 mi NNW 15.0 mph 24.2 mph N/A   Mostly Cloudy
8:34 AM 32.0 °F 21.2 °F 26.6 °F 80% 29.90 in 10.0 mi North 16.1 mph 21.9 mph N/A   Scattered Clouds
8:53 AM 32.0 °F 22.1 °F 25.0 °F 75% 29.96 in 10.0 mi NNW 13.8 mph 23.0 mph N/A   Partly Cloudy
9:53 AM 33.1 °F 21.9 °F 25.0 °F 72% 29.97 in 10.0 mi NNW 18.4 mph 24.2 mph N/A   Partly Cloudy
10:53 AM 34.0 °F 22.1 °F 24.1 °F 67% 29.99 in 10.0 mi North 21.9 mph 29.9 mph N/A   Clear
11:53 AM 37.0 °F 27.0 °F 26.1 °F 65% 29.99 in 10.0 mi North 18.4 mph 24.2 mph N/A   Scattered Clouds
12:17 PM 35.6 °F 25.9 °F 26.6 °F 70% 29.93 in 10.0 mi NNW 16.1 mph 23.0 mph N/A   Mostly Cloudy
12:53 PM 36.0 °F 26.3 °F 27.0 °F 70% 29.99 in 10.0 mi NW 16.1 mph - N/A   Overcast
1:19 PM 35.6 °F 24.5 °F 26.6 °F 70% 29.93 in 10.0 mi NW 20.7 mph 26.5 mph N/A   Overcast
1:53 PM 37.0 °F 28.1 °F 27.0 °F 67% 29.99 in 10.0 mi NNW 15.0 mph - N/A   Overcast
2:42 PM 37.4 °F 28.2 °F 26.6 °F 65% 29.95 in 10.0 mi NNW 16.1 mph 20.7 mph N/A   Mostly Cloudy
2:53 PM 37.0 °F 28.1 °F 27.0 °F 67% 30.00 in 10.0 mi NW 15.0 mph - N/A   Scattered Clouds
3:53 PM 37.0 °F 28.5 °F 28.0 °F 70% 30.01 in 10.0 mi NW 13.8 mph - N/A   Overcast
4:53 PM 36.0 °F 27.5 °F 28.0 °F 73% 30.03 in 10.0 mi WNW 12.7 mph - N/A   Overcast
5:09 PM 35.6 °F 26.2 °F 28.4 °F 75% 29.98 in 10.0 mi NW 15.0 mph - N/A   Overcast
5:53 PM 36.0 °F 26.3 °F 28.0 °F 73% 30.05 in 10.0 mi WNW 16.1 mph - N/A   Mostly Cloudy
6:24 PM 35.6 °F 26.6 °F 26.6 °F 70% 30.00 in 10.0 mi NW 13.8 mph - N/A   Mostly Cloudy
6:34 PM 35.6 °F 26.2 °F 26.6 °F 70% 30.00 in 10.0 mi NW 15.0 mph - N/A   Scattered Clouds
6:53 PM 34.0 °F 23.8 °F 27.0 °F 75% 30.06 in 10.0 mi NW 16.1 mph 21.9 mph N/A   Clear
7:53 PM 32.0 °F 22.1 °F 25.0 °F 75% 30.09 in 10.0 mi WNW 13.8 mph - N/A   Clear
8:53 PM 30.9 °F 25.2 °F 25.0 °F 79% 30.10 in 10.0 mi NW 5.8 mph - N/A   Clear
9:53 PM 30.0 °F 24.1 °F 26.1 °F 85% 30.10 in 10.0 mi WNW 5.8 mph - N/A   Clear
10:53 PM 28.9 °F 23.9 °F 26.1 °F 89% 30.09 in 10.0 mi WNW 4.6 mph - N/A   Clear
11:53 PM 28.0 °F 22.8 °F 25.0 °F 88% 30.09 in 10.0 mi West 4.6 mph - N/A   Clear